Daleville, AL

3:27 AM CST on February 11, 2016 (GMT -0600)
Cairns Army Air Field

Weather History for KOZR - January, 2015

Change the Weather History Date:

Saturday, January 31, 2015

  Actual Average (KDHN) Record (KDHN)
Temperature  
Mean Temperature 44 °F 50 °F  
Max Temperature 61 °F 62 °F 81 °F (1950)
Min Temperature 28 °F 39 °F 19 °F (1966)
Degree Days  
Heating Degree Days 20 15  
Month to date heating degree days 503  
Since 1 July heating degree days 1216  
Moisture  
Dew Point 25 °F    
Average Humidity 47    
Maximum Humidity 80    
Minimum Humidity 23    
Precipitation  
Precipitation 0.00 in 0.20 in 2.60 in (1934)
Month to date precipitation 4.63  
Year to date precipitation 4.63  
Sea Level Pressure  
Sea Level Pressure 30.31 in    
Wind  
Wind Speed 6 mph (NE)    
Max Wind Speed 9 mph    
Max Gust Speed -    
Visibility 10 miles    
Events      
T = Trace of Precipitation, MM = Missing Value Source: NWS Daily Summary

Daily Weather History Graph

Daily Weather History Graph

Search for Another Location

Airport or City:

Trip Planner

Search our weather history database for the weather conditions in past years. The results will help you decide how hot, cold, wet, or windy it might be!

Date:

Astronomy

Jan. 31, 2015 Rise Set
Actual Time 6:35 AM CST 5:16 PM CST
Civil Twilight 6:10 AM CST 5:42 PM CST
Nautical Twilight 5:41 AM CST 6:11 PM CST
Astronomical Twilight 5:12 AM CST 6:40 PM CST
Moon 2:44 PM CST (1/31) 3:54 AM CST (1/31)
Length of Visible Light 11h 31m
Length of Day
10h 41m
Waxing Gibbous, 90% of the Moon is Illuminated
Jan 31
Waxing Gibbous
Feb 3
Full
Feb 11
Last Quarter
Feb 18
New
Feb 25
First Quarter

Hourly Weather History & Observations

Time (CST) Temp. Windchill Dew Point Humidity Pressure Visibility Wind Dir Wind Speed Gust Speed Precip Events Conditions
12:58 AM 41.2 °F 36.6 °F 23.2 °F 49% 30.33 in 10.0 mi NNE 6.9 mph - N/A   Clear
1:58 AM 38.8 °F 36.5 °F 23.4 °F 54% 30.33 in 10.0 mi North 3.5 mph - N/A   Clear
2:58 AM 36.7 °F 32.0 °F 23.0 °F 58% 30.32 in 10.0 mi North 5.8 mph - N/A   Clear
3:58 AM 36.7 °F 32.0 °F 23.0 °F 58% 30.33 in 10.0 mi North 5.8 mph - N/A   Clear
4:58 AM 35.4 °F 30.5 °F 23.0 °F 61% 30.34 in 10.0 mi North 5.8 mph - N/A   Clear
5:58 AM 28.9 °F 23.9 °F 23.5 °F 80% 30.35 in 10.0 mi NE 4.6 mph - N/A   Clear
6:58 AM 29.8 °F 24.9 °F 23.7 °F 78% 30.35 in 10.0 mi NE 4.6 mph - N/A   Clear
7:58 AM 36.0 °F 29.0 °F 25.0 °F 64% 30.35 in 10.0 mi NE 9.2 mph - N/A   Clear
8:58 AM 42.1 °F 37.7 °F 25.2 °F 51% 30.38 in 10.0 mi ENE 6.9 mph - N/A   Clear
9:58 AM 49.1 °F - 23.0 °F 36% 30.38 in 10.0 mi ENE 8.1 mph - N/A   Clear
10:58 AM 53.1 °F - 24.3 °F 33% 30.37 in 10.0 mi Variable 4.6 mph - N/A   Clear
11:58 AM 56.7 °F - 23.5 °F 28% 30.34 in 10.0 mi SE 8.1 mph - N/A   Clear
12:58 PM 58.3 °F - 23.2 °F 26% 30.31 in 10.0 mi NE 5.8 mph - N/A   Clear
1:58 PM 61.0 °F - 24.1 °F 24% 30.28 in 10.0 mi East 5.8 mph - N/A   Clear
2:58 PM 61.9 °F - 23.7 °F 23% 30.26 in 10.0 mi Variable 5.8 mph - N/A   Clear
3:58 PM 61.7 °F - 22.8 °F 23% 30.26 in 10.0 mi East 4.6 mph - N/A   Clear
4:58 PM 58.5 °F - 25.2 °F 28% 30.26 in 10.0 mi East 4.6 mph - N/A   Clear
5:58 PM 53.6 °F - 25.9 °F 34% 30.27 in 10.0 mi East 4.6 mph - N/A   Clear
6:58 PM 50.9 °F - 27.7 °F 41% 30.27 in 10.0 mi ENE 5.8 mph - N/A   Clear
7:58 PM 47.1 °F - 28.6 °F 49% 30.27 in 10.0 mi East 5.8 mph - N/A   Scattered Clouds
8:58 PM 47.3 °F - 29.5 °F 50% 30.26 in 10.0 mi ENE 5.8 mph - N/A   Clear
9:58 PM 47.1 °F - 30.0 °F 51% 30.25 in 10.0 mi ENE 5.8 mph - N/A   Clear
10:58 PM 43.5 °F 41.9 °F 30.9 °F 61% 30.25 in 10.0 mi NE 3.5 mph - N/A   Overcast
11:58 PM 42.8 °F 40.1 °F 31.5 °F 64% 30.23 in 10.0 mi ENE 4.6 mph - N/A   Partly Cloudy